Terminal Aerodrome Forecast
Issued by NWS Anchorage, AK

Home | Current Version | Previous Version | Text Only | Print | Product List | Glossary On
Versions: 1 2 3 4 5 6 7 8 9 10 11 12 13 14 15 16 17 18 19 20 21 22 23 24 25 26 27 28 29 30 31 32 33 34 35 36 37 38 39 40 41 42 43 44 45 46 47 48 49 50
000
FTAK31 PANC 061148
TAFANC
TAF
PANC 061148Z 0612/0718 VRB04KT P6SM -RA SCT035 OVC060
      TEMPO 0612/0615 6SM -RASN FEW015 BKN035
     FM061500 17004KT P6SM FEW015 SCT035 BKN060
     FM070300 16014KT 5SM -RA SCT025 BKN035
     FM071000 16015G25KT 2SM -RASN BR SCT010 OVC018=

USA.gov is the U.S. government's official web portal to all federal, state and local government web resources and services.